Cody, WY

7:10 PM MDT on May 25, 2018 (GMT -0600)
Yellowstone Regional

Weather History for KCOD - July, 2012

Change the Weather History Date:

Saturday, July 14, 2012

  Actual Average Record
Temperature  
Mean Temperature 76 °F -  
Max Temperature 87 °F 85 °F 105 °F (1925)
Min Temperature 64 °F 54 °F 42 °F (1993)
Cooling Degree Days 12    
Growing Degree Days 26 (Base 50)    
Moisture  
Dew Point 49 °F    
Average Humidity 41    
Maximum Humidity 77    
Minimum Humidity 24    
Precipitation  
Precipitation 0.01 in - - ()
Sea Level Pressure  
Sea Level Pressure 30.03 in    
Wind  
Wind Speed 5 mph (WSW)    
Max Wind Speed 21 mph    
Max Gust Speed 34 mph    
Visibility 10 miles    
Events Thunderstorm    
Averages and records for this station are not official NWS values.
T = Trace of Precipitation, MM = Missing Value Source: NWS Daily Summary

Daily Weather History Graph

Daily Weather History Graph

Search for Another Location

Airport or City:

Astronomy

Jul. 14, 2012 Rise Set
Actual Time 5:45 AM MDT 8:58 PM MDT
Civil Twilight 5:09 AM MDT 9:33 PM MDT
Nautical Twilight 4:23 AM MDT 10:19 PM MDT
Astronomical Twilight 3:26 AM MDT 11:15 PM MDT
Moon 2:02 AM MDT (7/14) 5:25 PM MDT (7/14)
Length of Visible Light 16h 24m
Length of Day
15h 13m
Waning Crescent, 18% of the Moon is Illuminated
Jul 14
Waning Crescent
Jul 18
New
Jul 26
First Quarter
Aug 1
Full
Aug 9
Last Quarter

Hourly Weather History & Observations

Time (MDT) Temp. Heat Index Dew Point Humidity Pressure Visibility Wind Dir Wind Speed Gust Speed Precip Events Conditions
12:15 AM 73.4 °F - 46.4 °F 38% 30.11 in 10.0 mi WNW 6.9 mph - N/A   Partly Cloudy
12:35 AM 75.2 °F - 42.8 °F 31% 30.12 in 10.0 mi West 3.5 mph - N/A   Partly Cloudy
12:55 AM 75.2 °F - 44.6 °F 34% 30.10 in 10.0 mi WSW 3.5 mph - N/A   Partly Cloudy
1:15 AM 73.4 °F - 46.4 °F 38% 30.10 in 10.0 mi Calm Calm - N/A   Clear
1:55 AM 71.6 °F - 46.4 °F 41% 30.09 in 10.0 mi WSW 5.8 mph - N/A   Clear
2:15 AM 69.8 °F - 48.2 °F 46% 30.09 in 10.0 mi SSW 6.9 mph - N/A   Clear
2:35 AM 69.8 °F - 46.4 °F 43% 30.09 in 10.0 mi SW 6.9 mph - N/A   Scattered Clouds
2:55 AM 71.6 °F - 46.4 °F 41% 30.08 in 10.0 mi WSW 4.6 mph - N/A   Mostly Cloudy
3:15 AM 71.6 °F - 48.2 °F 43% 30.08 in 10.0 mi SW 4.6 mph - N/A   Scattered Clouds
3:35 AM 71.6 °F - 48.2 °F 43% 30.08 in 10.0 mi WSW 4.6 mph - N/A   Partly Cloudy
3:55 AM 71.6 °F - 48.2 °F 43% 30.07 in 10.0 mi WSW 6.9 mph - N/A   Clear
4:15 AM 71.6 °F - 46.4 °F 41% 30.07 in 10.0 mi SW 5.8 mph - N/A   Clear
4:35 AM 73.4 °F - 46.4 °F 38% 30.07 in 10.0 mi West 5.8 mph - N/A   Clear
4:55 AM 73.4 °F - 46.4 °F 38% 30.07 in 10.0 mi SW 5.8 mph - N/A   Clear
5:15 AM 71.6 °F - 46.4 °F 41% 30.07 in 10.0 mi West 6.9 mph - N/A   Clear
5:35 AM 71.6 °F - 44.6 °F 38% 30.07 in 10.0 mi West 4.6 mph - N/A   Clear
5:55 AM 71.6 °F - 42.8 °F 35% 30.07 in 10.0 mi West 4.6 mph - N/A   Clear
6:15 AM 71.6 °F - 46.4 °F 41% 30.08 in 10.0 mi SW 4.6 mph - N/A   Clear
6:35 AM 71.6 °F - 46.4 °F 41% 30.07 in 10.0 mi Calm Calm - N/A   Clear
6:55 AM 71.6 °F - 46.4 °F 41% 30.07 in 10.0 mi West 3.5 mph - N/A   Clear
7:15 AM 73.4 °F - 46.4 °F 38% 30.08 in 10.0 mi SW 5.8 mph - N/A   Partly Cloudy
7:35 AM 73.4 °F - 46.4 °F 38% 30.07 in 10.0 mi West 5.8 mph - N/A   Clear
8:15 AM 73.4 °F - 46.4 °F 38% 30.08 in 10.0 mi West 4.6 mph - N/A   Clear
8:35 AM 75.2 °F - 46.4 °F 36% 30.07 in 10.0 mi WSW 4.6 mph - N/A   Clear
9:15 AM 78.8 °F - 48.2 °F 34% 30.07 in 10.0 mi Calm Calm - N/A   Clear
9:35 AM 78.8 °F - 48.2 °F 34% 30.07 in 10.0 mi North 3.5 mph - N/A   Clear
9:55 AM 80.6 °F - 48.2 °F 32% 30.06 in 10.0 mi North 3.5 mph - N/A   Clear
10:15 AM 78.8 °F - 48.2 °F 34% 30.06 in 10.0 mi NNE 6.9 mph - N/A   Clear
10:35 AM 80.6 °F - 48.2 °F 32% 30.05 in 10.0 mi NNE 3.5 mph - N/A   Partly Cloudy
10:55 AM 80.6 °F - 50.0 °F 34% 30.05 in 10.0 mi Calm Calm - N/A   Scattered Clouds
11:15 AM 78.8 °F - 48.2 °F 34% 30.05 in 10.0 mi NNE 6.9 mph - N/A   Partly Cloudy
11:35 AM 82.4 °F - 46.4 °F 28% 30.04 in 10.0 mi East 5.8 mph - N/A   Clear
11:55 AM 84.2 °F - 44.6 °F 25% 30.04 in 10.0 mi ESE 5.8 mph - N/A   Clear
12:15 PM 84.2 °F - 46.4 °F 27% 30.03 in 10.0 mi Calm Calm - N/A   Clear
12:35 PM 84.2 °F - 48.2 °F 29% 30.02 in 10.0 mi ENE 4.6 mph - N/A   Partly Cloudy
12:55 PM 82.4 °F - 48.2 °F 30% 30.02 in 10.0 mi SE 4.6 mph - N/A   Scattered Clouds
1:15 PM 82.4 °F - 48.2 °F 30% 30.02 in 10.0 mi Calm Calm - N/A   Scattered Clouds
1:35 PM 71.6 °F - 55.4 °F 57% 30.05 in 8.0 mi WSW 11.5 mph 24.2 mph N/A   Mostly Cloudy
1:55 PM 73.4 °F - 55.4 °F 53% 30.04 in 10.0 mi WNW 6.9 mph - N/A   Overcast
2:15 PM 75.2 °F - 57.2 °F 53% 30.04 in 10.0 mi WNW 3.5 mph - N/A   Mostly Cloudy
2:35 PM 78.8 °F - 55.4 °F 44% 30.03 in 10.0 mi NNE 4.6 mph - N/A   Mostly Cloudy
2:55 PM 80.6 °F - 48.2 °F 32% 30.02 in 10.0 mi ENE 5.8 mph - N/A   Scattered Clouds
3:15 PM 80.6 °F - 48.2 °F 32% 30.01 in 10.0 mi NE 4.6 mph - N/A   Clear
3:35 PM 80.6 °F 80.8 °F 57.2 °F 45% 30.00 in 10.0 mi North 4.6 mph - N/A   Clear
3:55 PM 84.2 °F - 51.8 °F 33% 29.99 in 10.0 mi Calm Calm - N/A   Clear
4:15 PM 86.0 °F - 50.0 °F 29% 29.98 in 10.0 mi WNW 4.6 mph - N/A   Clear
4:55 PM 87.8 °F - 46.4 °F 24% 29.96 in 10.0 mi South 5.8 mph - N/A   Partly Cloudy
5:15 PM 84.2 °F - 48.2 °F 29% 29.96 in 10.0 mi NE 8.1 mph - N/A   Clear
5:35 PM 82.4 °F - 48.2 °F 30% 29.96 in 10.0 mi NNE 3.5 mph - N/A   Partly Cloudy
5:55 PM 84.2 °F - 48.2 °F 29% 29.95 in 10.0 mi Calm Calm - N/A   Scattered Clouds
6:15 PM 84.2 °F - 46.4 °F 27% 29.95 in 10.0 mi South 5.8 mph - N/A   Scattered Clouds
6:35 PM 84.2 °F - 46.4 °F 27% 29.95 in 10.0 mi SW 8.1 mph - N/A   Overcast
6:55 PM 80.6 °F - 48.2 °F 32% 29.97 in 10.0 mi WSW 16.1 mph 23.0 mph N/A   Overcast
7:15 PM 69.8 °F - 55.4 °F 60% 29.98 in 7.0 mi WSW 20.7 mph 34.5 mph 0.01 in Thunderstorm Overcast
7:35 PM 69.8 °F - 53.6 °F 56% 29.99 in 10.0 mi WSW 15.0 mph 20.7 mph 0.01 in   Overcast
7:55 PM 69.8 °F - 53.6 °F 56% 29.98 in 10.0 mi West 11.5 mph 21.9 mph 0.01 in   Overcast
8:15 PM 69.8 °F - 53.6 °F 56% 29.98 in 10.0 mi West 4.6 mph - N/A   Overcast
8:35 PM 71.6 °F - 53.6 °F 53% 29.98 in 10.0 mi SSW 3.5 mph - N/A   Overcast
8:55 PM 69.8 °F - 55.4 °F 60% 29.98 in 10.0 mi SW 6.9 mph - N/A   Mostly Cloudy
9:15 PM 69.8 °F - 55.4 °F 60% 29.99 in 10.0 mi North 4.6 mph - N/A   Mostly Cloudy
9:56 PM 71.6 °F - 53.6 °F 53% 29.99 in 10.0 mi SSW 3.5 mph - N/A   Mostly Cloudy
10:15 PM 71.6 °F - 53.6 °F 53% 29.98 in 10.0 mi Calm Calm - N/A   Mostly Cloudy
10:35 PM 71.6 °F - 51.8 °F 50% 29.99 in 10.0 mi Calm Calm - N/A   Mostly Cloudy
10:55 PM 71.6 °F - 51.8 °F 50% 29.99 in 10.0 mi Calm Calm - N/A   Overcast
11:15 PM 69.8 °F - 55.4 °F 60% 30.00 in 10.0 mi SSW 11.5 mph - N/A   Overcast
11:35 PM 66.2 °F - 55.4 °F 68% 29.99 in 10.0 mi South 13.8 mph - N/A   Overcast
11:55 PM 64.4 °F - 57.2 °F 77% 29.99 in 10.0 mi SSW 10.4 mph - N/A   Overcast